Location: Aufkirchen
(47.9603°N, 11.3653°E)
Time: 23:00:58
(UTC+01:00)

Explorer 11/Cluster Stage 4 - All Passes

Search period start: 25 November 2020 00:00
Search period end: 05 December 2020 00:00
Orbit: 467 x 1258 km, 28.8° (Epoch: 25 November)

Date Brightness Start Highest point End Pass type
(mag) Time Alt. Az. Time Alt. Az. Time Alt. Az.
29 Nov - 22:19:28 10° S 22:20:16 10° S 22:21:03 10° S night (unlit)
30 Nov - 22:07:06 10° SSW 22:09:13 12° S 22:11:12 10° SSE night (unlit)
01 Dec - 21:55:18 10° SSW 21:58:08 13° S 22:00:47 10° SSE night (unlit)
02 Dec - 19:57:11 10° S 19:59:22 11° SSE 20:01:28 10° SSE visible
02 Dec - 21:43:39 10° SSW 21:47:01 14° S 21:50:10 10° SSE visible
03 Dec - 19:45:01 10° SSW 19:48:12 13° SSE 19:51:14 10° SE visible
03 Dec - 21:32:07 10° SW 21:35:54 15° S 21:39:25 10° SSE visible
04 Dec - 19:33:10 10° SSW 19:37:01 14° S 19:40:42 10° SE visible
04 Dec - 21:20:38 10° SW 21:24:46 15° S 21:28:34 10° SSE visible
